Location: Dutch Quarter
(18.0487°N, 63.0483°W)
Time: 14:43:20
(UTC+00:00)

Daily predictions for brighter satellites

Satellite Brightness Start Highest point End
(mag) Time Altitude Azimuth Time Altitude Azimuth Time Altitude Azimuth
H-II Stage 2 4.0 22:18:15 10° WNW 22:27:01 35° SW 22:29:49 10° SSE
Centaur D AC-28 4.4 12:33:42 10° SW 22:28:30 76° NNW 22:35:05 10° ENE
Cosmos 1624 Rocket 4.0 22:24:10 10° S 22:29:28 77° ESE 22:34:45 10° NNE
YAOGAN 6 2.6 22:26:51 10° SSE 22:30:31 81° E 22:34:10 10° N
CZ-2D R/B 4.3 22:36:11 10° SE 22:39:15 23° ENE 22:42:20 10° NNE
ATLAS CENTAUR R/B 1.7 22:36:35 10° N 22:39:53 32° ENE 22:43:04 10° SE
Cosmos 2056 Rocket 3.8 22:40:43 10° SSW 22:45:53 72° WNW 22:51:10 10° N
ADEOS Rocket 3.6 22:40:15 10° NNE 22:47:35 64° ESE 22:55:16 10° S
SWIFT 2.4 22:45:13 10° W 22:49:24 75° SSW 22:53:10 13° ESE
In-Cosmos 22 Rocket 4.2 22:46:49 10° S 22:52:30 63° E 22:58:02 10° NNE
Genesis I 3.6 22:49:11 10° SSW 22:53:08 67° WNW 22:57:04 10° NNE
Stardust Del rocket 3.4 22:51:25 10° WNW 22:54:30 33° N 22:55:36 22° NE
Mugunghwa Rocket 4.3 22:51:42 10° WNW 22:57:56 54° NNE 23:02:54 18° E
FUSE 4.1 22:53:01 10° WNW 22:58:18 60° NNE 23:02:01 19° E
Cosmos 1356 Rocket 4.4 22:58:00 10° NNW 23:02:01 50° W 23:06:05 10° S
Cosmos 1939 Rocket 2.8 22:59:00 10° SSE 23:02:48 54° ENE 23:06:39 10° N
Cosmos 1869 3.8 22:59:58 10° NNE 23:03:33 34° E 23:07:06 10° SSE
Meteor 2-2 Rocket 4.3 23:01:15 10° N 23:07:09 60° E 23:12:56 10° SSE
Cosmos 1842 Rocket 4.0 23:03:01 10° NNW 23:07:28 67° W 23:11:53 10° S
USA 102 2.6 23:11:00 83° SSW 23:11:04 86° WSW 23:17:00 10° NNW
GPS 2-14 Rocket1 2.8 23:08:06 10° W 23:11:52 57° N 23:13:14 35° ENE
CZ-2C R/B 4.4 23:13:07 29° E 23:13:49 30° E 23:17:48 10° SSE
Cosmos 2263 Rocket 4.5 23:10:24 10° WSW 23:14:36 22° WNW 23:18:49 10° NNW
SL-16 R/B 3.8 23:11:21 10° NW 23:16:28 36° WSW 23:21:34 10° SSW
Iridium 45 4.5 23:15:29 10° N 23:19:03 84° W 23:22:32 10° S
ASC 2 Rocket 3.0 23:13:52 10° WSW 23:19:04 85° SSE 23:20:37 39° ENE
Cosmos 1408 2.7 23:16:52 10° SSE 23:20:21 46° E 23:20:23 46° E
Cosmos 1900 4.2 23:15:57 10° SSW 23:20:54 72° ESE 23:23:40 26° NNE
Abrixas rocket 3.9 23:18:45 10° S 23:20:07 19° SSE 23:20:07 19° SSE
Cosmos 1892 3.1 23:18:28 10° SSW 23:22:17 65° W 23:26:08 10° N
Cosmos 1844 Rocket 2.6 23:19:01 10° S 23:24:29 63° ESE 23:27:42 25° NNE
NOAA 11 4.5 23:19:37 10° S 23:25:05 71° WSW 23:30:33 10° NNW
Cosmos 2151 2.8 23:21:20 10° S 23:25:31 77° E 23:28:15 21° N
Cosmos 2221 3.5 23:23:47 10° NNW 23:27:55 48° W 23:32:05 10° SSW
Cosmos 1452 Rocket 3.4 23:22:40 10° SSW 23:27:57 89° WNW 23:32:20 15° NNE
Aureole 1 Rocket 4.4 23:20:01 10° NNW 23:28:23 88° ENE 23:35:18 10° SSE
Cosmos 1603 3.6 23:24:35 10° N 23:30:07 60° ENE 23:35:37 10° SSE
Cosmos 1825 3.7 23:27:21 10° SSE 23:29:03 23° SSE 23:29:03 23° SSE
ATLAS 3B R/B 3.1 23:29:06 10° SW 23:35:48 60° WNW 23:41:50 13° NNE
Cosmos 1605 Rocket 3.9 23:30:03 10° S 23:36:20 87° E 23:42:41 10° N
Okean 3 Rocket 3.8 23:32:37 10° S 23:37:01 70° W 23:40:50 14° N
CENTAUR R/B 4.2 23:46:13 10° WSW 23:50:36 24° WNW 23:55:26 10° N
